Date String (YYYY-MM-DD hh:mm:ss) UTC,Instrument flags,Ambient pressure (hPa),Sample flow (lpm),Bypass flow (lpm),Sample temperature (°C),Ambient temperature (°C),ASC tube jacket temperature (°C),LED temperature (°C),Box temperature (°C),Sample RH (%),Span deviation,Mass concentration (μg/m³),Mass concentration (μg/m³),Mass concentration (μg/m³)
DateTimeUTC,F1_M11,P_M11,Q1_M11,Q2_M11,T1_M11,T2_M11,T3_M11,T4_M11,T5_M11,U1_M11,ZSPAN_M11,X0_M11,X2_M11,X1_M11
2022-02-28 23:00:00,,0828.0,4.99,0.00,28.8,28.0,00.0,37.7,30.5,08.7,0000.0,0015.88,0008.43,0007.55
2022-02-28 23:01:00,,0828.2,5.00,0.00,28.8,27.9,00.0,37.7,30.6,08.8,0000.0,0016.26,0008.41,0007.57
2022-02-28 23:02:00,,0828.1,5.01,0.00,28.8,27.9,00.0,37.7,30.6,08.9,0000.0,0016.87,0008.38,0007.60
2022-02-28 23:03:00,,0828.3,4.99,0.00,28.8,27.9,00.0,37.7,30.6,09.0,0000.0,0017.08,0008.41,0007.63
2022-02-28 23:04:00,,0828.1,5.01,0.00,28.8,27.9,00.0,37.7,30.6,09.0,0000.0,0017.69,0008.45,0007.65
2022-02-28 23:05:00,,0828.0,5.00,0.00,28.8,27.9,00.0,37.7,30.5,08.9,0000.0,0017.57,0008.45,0007.67
2022-02-28 23:06:00,,0828.0,4.99,0.00,28.8,27.9,00.0,37.7,30.5,08.8,0000.0,0017.41,0008.49,0007.70
2022-02-28 23:07:00,,0828.0,4.99,0.00,28.8,27.9,00.0,37.7,30.5,08.9,0000.0,0017.22,0008.52,0007.74
2022-02-28 23:08:00,,0828.0,5.02,0.00,28.8,27.8,00.0,37.7,30.5,08.7,0000.0,0017.36,0008.55,0007.77
2022-02-28 23:09:00,,0827.9,5.01,0.00,28.7,27.8,00.0,37.7,30.5,08.6,0000.0,0017.76,0008.56,0007.76
2022-02-28 23:10:00,,0827.9,5.00,0.00,28.7,27.9,00.0,37.7,30.6,08.8,0000.0,0017.63,0008.54,0007.74
2022-02-28 23:11:00,,0828.0,4.99,0.00,28.8,27.9,00.0,37.7,30.5,08.8,0000.0,0018.88,0008.51,0007.73
2022-02-28 23:12:00,,0828.0,5.01,0.00,28.7,27.9,00.0,37.7,30.5,08.8,0000.0,0019.55,0008.54,0007.71
2022-02-28 23:13:00,,0827.9,5.00,0.00,28.8,27.9,00.0,37.7,30.5,08.7,0000.0,0019.06,0008.53,0007.69
2022-02-28 23:14:00,,0827.9,5.02,0.00,28.7,27.9,00.0,37.7,30.5,08.9,0000.0,0018.73,0008.55,0007.69
2022-02-28 23:15:00,,0827.9,4.99,0.00,28.7,28.0,00.0,37.7,30.5,09.0,0000.0,0018.15,0008.53,0007.67
2022-02-28 23:16:00,,0827.9,4.99,0.00,28.7,27.9,00.0,37.7,30.5,09.1,0000.0,0018.19,0008.54,0007.66
2022-02-28 23:17:00,,0827.8,4.99,0.00,28.7,28.0,00.0,37.7,30.5,09.2,0000.0,0017.97,0008.51,0007.63
2022-02-28 23:18:00,,0827.8,4.99,0.00,28.7,28.0,00.0,37.7,30.5,09.1,0000.0,0017.73,0008.54,0007.63
2022-02-28 23:19:00,,0827.8,5.00,0.00,28.7,27.9,00.0,37.7,30.5,09.2,0000.0,0017.67,0008.58,0007.65
2022-02-28 23:20:00,,0827.8,5.02,0.00,28.7,27.9,00.0,37.7,30.5,09.4,0000.0,0017.43,0008.60,0007.67
2022-02-28 23:21:00,,0827.8,5.00,0.00,28.7,28.0,00.0,37.7,30.5,09.5,0000.0,0017.69,0008.65,0007.71
2022-02-28 23:22:00,,0827.8,5.00,0.00,28.7,28.0,00.0,37.7,30.5,09.1,0000.0,0017.33,0008.69,0007.74
2022-02-28 23:23:00,,0827.8,5.00,0.00,28.7,27.9,00.0,37.7,30.5,09.0,0000.0,0016.50,0008.70,0007.74
2022-02-28 23:24:00,,0827.9,5.00,0.00,28.7,28.0,00.0,37.7,30.5,09.4,0000.0,0017.19,0008.67,0007.72
2022-02-28 23:25:00,,0827.8,4.99,0.00,28.7,28.0,00.0,37.7,30.5,09.2,0000.0,0018.18,0008.56,0007.67
2022-02-28 23:26:00,,0827.8,5.01,0.00,28.7,27.9,00.0,37.7,30.5,08.8,0000.0,0017.98,0008.52,0007.62
2022-02-28 23:27:00,,0827.8,5.00,0.00,28.7,27.8,00.0,37.7,30.5,08.6,0000.0,0017.34,0008.44,0007.56
2022-02-28 23:28:00,,0827.8,5.00,0.00,28.7,27.8,00.0,37.7,30.5,08.5,0000.0,0017.55,0008.38,0007.48
2022-02-28 23:29:00,,0827.8,4.99,0.00,28.7,27.9,00.0,37.7,30.5,08.7,0000.0,0017.63,0008.25,0007.40
2022-02-28 23:30:00,,0827.8,5.01,0.00,28.7,27.9,00.0,37.7,30.5,08.5,0000.0,0018.17,0008.13,0007.31
2022-02-28 23:31:00,,0827.8,4.99,0.00,28.7,27.9,00.0,37.7,30.5,08.6,0000.0,0018.14,0008.00,0007.20
2022-02-28 23:32:00,,0827.8,5.01,0.00,28.8,27.9,00.0,37.7,30.5,08.2,0000.0,0017.63,0007.80,0007.01
2022-02-28 23:33:00,,0827.7,5.00,0.00,28.8,27.9,00.0,37.7,30.6,08.0,0000.0,0016.41,0007.58,0006.82
2022-02-28 23:34:00,,0827.7,4.99,0.00,28.8,27.9,00.0,37.7,30.6,08.0,0000.0,0016.01,0007.36,0006.63
2022-02-28 23:35:00,,0827.8,5.02,0.00,28.8,27.9,00.0,37.7,30.6,08.0,0000.0,0014.78,0007.20,0006.46
2022-02-28 23:36:00,,0827.7,4.99,0.00,28.8,28.0,00.0,37.7,30.6,08.1,0000.0,0014.57,0007.10,0006.32
2022-02-28 23:37:00,,0827.7,5.00,0.00,28.8,28.0,00.0,37.7,30.6,08.3,0000.0,0014.51,0006.96,0006.23
2022-02-28 23:38:00,,0827.7,5.02,0.00,28.8,28.1,00.0,37.7,30.6,08.5,0000.0,0014.83,0006.93,0006.19
2022-02-28 23:39:00,,0827.7,5.00,0.00,28.8,28.1,00.0,37.8,30.7,08.1,0000.0,0014.84,0006.82,0006.13
2022-02-28 23:40:00,,0827.7,5.00,0.00,28.9,28.1,00.0,37.8,30.7,08.0,0000.0,0014.88,0006.73,0006.06
2022-02-28 23:41:00,,0827.7,4.99,0.00,28.9,28.2,00.0,37.8,30.7,08.4,0000.0,0014.16,0006.67,0006.02
2022-02-28 23:42:00,,0827.7,5.01,0.00,28.9,28.2,00.0,37.8,30.8,08.7,0000.0,0014.12,0006.70,0006.02
2022-02-28 23:43:00,,0827.7,5.01,0.00,28.9,28.2,00.0,37.8,30.8,08.8,0000.0,0015.25,0006.81,0006.09
2022-02-28 23:44:00,,0827.7,5.00,0.00,29.0,28.3,00.0,37.8,30.8,08.8,0000.0,0015.87,0006.96,0006.20
2022-02-28 23:45:00,,0827.7,5.00,0.00,29.0,28.3,00.0,37.8,30.8,08.8,0000.0,0016.17,0007.11,0006.32
2022-02-28 23:46:00,,0827.7,4.99,0.00,29.0,28.3,00.0,37.8,30.9,08.6,0000.0,0016.93,0007.25,0006.44
2022-02-28 23:47:00,,0827.7,5.00,0.00,29.0,28.3,00.0,37.9,30.9,08.7,0000.0,0016.29,0007.33,0006.54
2022-02-28 23:48:00,,0827.7,5.00,0.00,29.0,28.3,00.0,37.9,30.9,08.6,0000.0,0016.33,0007.42,0006.58
2022-02-28 23:49:00,,0827.7,5.00,0.00,29.1,28.4,00.0,37.9,30.9,08.2,0000.0,0016.62,0007.39,0006.55
2022-02-28 23:50:00,,0827.7,5.01,0.00,29.1,28.4,00.0,37.9,30.9,07.8,0000.0,0016.91,0007.33,0006.47
2022-02-28 23:51:00,,0827.7,4.99,0.00,29.1,28.4,00.0,37.9,31.0,07.9,0000.0,0016.52,0007.29,0006.42
2022-02-28 23:52:00,,0827.7,5.00,0.00,29.1,28.5,00.0,37.9,31.0,08.5,0000.0,0017.19,0007.25,0006.35
2022-02-28 23:53:00,,0827.7,5.00,0.00,29.1,28.5,00.0,38.0,31.0,07.8,0000.0,0017.33,0007.15,0006.28
2022-02-28 23:54:00,,0827.7,5.01,0.00,29.2,28.5,00.0,38.0,31.0,08.0,0000.0,0015.94,0006.88,0006.10
2022-02-28 23:55:00,,0827.7,5.00,0.00,29.2,28.5,00.0,38.0,31.0,08.5,0000.0,0015.49,0006.80,0006.04
2022-02-28 23:56:00,,0827.7,5.00,0.00,29.2,28.5,00.0,38.0,31.0,09.2,0000.0,0015.57,0006.94,0006.14
2022-02-28 23:57:00,,0827.7,4.99,0.00,29.2,28.6,00.0,38.0,31.0,09.1,0000.0,0015.37,0007.08,0006.30
2022-02-28 23:58:00,,0827.7,5.00,0.00,29.2,28.6,00.0,38.0,31.1,09.1,0000.0,0016.81,0007.28,0006.49
2022-02-28 23:59:00,,0827.7,5.00,0.00,29.2,28.6,00.0,38.1,31.1,09.3,0000.0,0017.17,0007.47,0006.70
